Simultaneous Nadir Overpasses (SNOs) Predictions

Prediction of SNOs between AQUA and METOP-B Satellite Orbit:

Table of predicted SNOs for the next 14.0 days since TLE Epoch: 9/11/2021
Index Date (AQUA) Time (AQUA) Lat,Lon (AQUA) SZA (AQUA ) Date (METOP-B) Time (METOP-B) Lat,Lon (METOP-B) SZA (METOP-B ) Distance(km) Time Diff (sec)
1 09/12/2021 11:54:27 -73.74, 175.77 110.27 09/12/2021 11:54:02 -73.74, 175.70 110.28 2.37 25
2 09/12/2021 12:43:56 73.84, -16.80 69.84 09/12/2021 12:44:40 73.83, -16.74 69.83 1.78 44
3 09/15/2021 06:39:02 73.04, 76.03 70.06 09/15/2021 06:37:57 72.96, 73.05 70.06 97.31 65
4 09/15/2021 07:28:42 -73.78,-117.87 109.16 09/15/2021 07:28:23 -73.76,-117.85 109.18 2.61 19
5 09/15/2021 08:18:10 73.83, 49.67 70.90 09/15/2021 08:19:01 73.84, 49.70 70.92 2.33 51
6 09/18/2021 02:13:22 73.31, 141.94 71.42 09/18/2021 02:12:13 73.28, 140.14 71.44 57.45 69
7 09/18/2021 03:02:57 -73.77, -51.42 108.09 09/18/2021 03:02:45 -73.77, -51.39 108.09 0.71 12
8 09/18/2021 03:52:25 73.82, 116.11 71.98 09/18/2021 03:53:24 73.81, 116.02 71.96 3.44 59
9 09/20/2021 21:47:42 73.58,-152.20 72.79 09/20/2021 21:46:30 73.54,-152.86 72.77 21.41 72
10 09/20/2021 22:37:12 -73.78, 15.01 107.00 09/20/2021 22:37:07 -73.79, 15.05 106.99 1.71 5
11 09/20/2021 23:26:40 73.84,-177.48 73.08 09/20/2021 23:27:46 73.82,-177.55 73.06 3.13 66
12 09/23/2021 17:21:58 73.70, -86.02 74.01 09/23/2021 17:20:48 73.70, -86.08 74.01 2.09 70
13 09/23/2021 18:11:26 -73.80, 81.41 105.89 09/23/2021 18:11:28 -73.80, 81.49 105.88 2.52 2



Historial Predications of SNOs between AQUA and METOP-B
